Weather History for Patuxent River, MD

Change the Weather History Date:

Wednesday, May 1, 2013

  Actual Average Record
Temperature  
Mean Temperature 58 °F -  
Max Temperature 68 °F 71 °F 91 °F (1986)
Min Temperature 51 °F 50 °F 40 °F (1988)
Degree Days  
Heating Degree Days 6    
Growing Degree Days 8 (Base 50)    
Moisture  
Dew Point 46 °F    
Average Humidity 67    
Maximum Humidity 86    
Minimum Humidity 36    
Precipitation  
Precipitation 0.00 in - - ()
Sea Level Pressure  
Sea Level Pressure 30.35 in    
Wind  
Wind Speed 10 mph (NE)    
Max Wind Speed 15 mph    
Max Gust Speed -    
Visibility 10 miles    
Events      
Averages and records for this station are not official NWS values.
T = Trace of Precipitation, MM = Missing Value Source: NWS Daily Summary

Daily Weather History Graph

Daily Weather History Graph

Search for Another Location

Airport:

Trip Planner

Search our weather history database for the weather conditions in past years. The results will help you decide how hot, cold, wet, or windy it might be!

Date:

Astronomy

May. 01, 2013 Rise Set
Actual Time 6:08 AM EDT 7:57 PM EDT
Civil Twilight 5:40 AM EDT 8:25 PM EDT
Nautical Twilight 5:05 AM EDT 9:00 PM EDT
Astronomical Twilight 4:28 AM EDT 9:37 PM EDT
Moon 1:04 AM EDT (5/1) 11:44 AM EDT (5/1)
Length of Visible Light 14h 45m
Length of Day
13h 48m
Waning Gibbous, 59% of the Moon is Illuminated
May 1
Waning Gibbous
May 2
Last Quarter
May 9
New
May 18
First Quarter
May 25
Full

Hourly Weather History & Observations

Time (EDT) Temp. Dew Point Humidity Pressure Visibility Wind Dir Wind Speed Gust Speed Precip Events Conditions
12:52 AM 55.0 °F 48.9 °F 80% 30.27 in 10.0 mi NNE 10.4 mph - N/A   Overcast
1:52 AM 55.0 °F 48.9 °F 80% 30.26 in 10.0 mi NE 8.1 mph - N/A   Overcast
2:52 AM 54.0 °F 48.0 °F 80% 30.26 in 10.0 mi NNE 10.4 mph - N/A   Overcast
3:52 AM 53.1 °F 48.0 °F 83% 30.27 in 10.0 mi NNE 13.8 mph - N/A   Overcast
4:52 AM 53.1 °F 46.9 °F 80% 30.28 in 10.0 mi NNE 10.4 mph - N/A   Mostly Cloudy
5:52 AM 51.1 °F 46.0 °F 83% 30.29 in 10.0 mi NNE 11.5 mph - N/A   Mostly Cloudy
6:52 AM 52.0 °F 45.0 °F 77% 30.31 in 10.0 mi North 6.9 mph - N/A   Scattered Clouds
7:52 AM 54.0 °F 46.0 °F 75% 30.33 in 10.0 mi North 8.1 mph - N/A   Partly Cloudy
8:52 AM 57.0 °F 46.9 °F 69% 30.35 in 10.0 mi North 9.2 mph - N/A   Partly Cloudy
9:52 AM 59.0 °F 48.9 °F 69% 30.36 in 10.0 mi NNE 9.2 mph - N/A   Partly Cloudy
10:52 AM 62.1 °F 48.9 °F 62% 30.37 in 10.0 mi NNE 12.7 mph - N/A   Partly Cloudy
11:52 AM 64.0 °F 48.0 °F 56% 30.37 in 10.0 mi NE 12.7 mph - N/A   Partly Cloudy
12:52 PM 64.9 °F 42.1 °F 43% 30.36 in 10.0 mi NE 15.0 mph - N/A   Partly Cloudy
1:52 PM 66.9 °F 42.1 °F 40% 30.36 in 10.0 mi NNE 10.4 mph - N/A   Partly Cloudy
2:52 PM 66.9 °F 45.0 °F 45% 30.36 in 10.0 mi NE 12.7 mph - N/A   Partly Cloudy
3:52 PM 66.0 °F 41.0 °F 40% 30.37 in 10.0 mi East 11.5 mph - N/A   Partly Cloudy
4:52 PM 64.9 °F 42.1 °F 43% 30.38 in 10.0 mi East 11.5 mph - N/A   Partly Cloudy
5:52 PM 64.9 °F 37.0 °F 36% 30.38 in 10.0 mi East 9.2 mph - N/A   Scattered Clouds
6:52 PM 63.0 °F 46.9 °F 56% 30.38 in 10.0 mi ENE 9.2 mph - N/A   Scattered Clouds
7:52 PM 59.0 °F 43.0 °F 55% 30.38 in 10.0 mi ENE 10.4 mph - N/A   Partly Cloudy
8:52 PM 55.9 °F 46.9 °F 72% 30.40 in 10.0 mi ENE 10.4 mph - N/A   Clear
9:52 PM 53.1 °F 48.0 °F 83% 30.40 in 10.0 mi NE 9.2 mph - N/A   Partly Cloudy
10:52 PM 53.1 °F 48.0 °F 83% 30.40 in 10.0 mi NE 5.8 mph - N/A   Partly Cloudy
11:40 PM 51.8 °F 46.4 °F 82% 30.41 in 10.0 mi NNE 4.6 mph - N/A   Scattered Clouds
11:50 PM 51.8 °F 46.4 °F 82% 30.41 in 10.0 mi NNE 5.8 mph - N/A   Mostly Cloudy
11:52 PM 51.1 °F 46.9 °F 86% 30.41 in 10.0 mi NNE 4.6 mph - N/A   Mostly Cloudy